This is the latest recevied weather packets stored in our database for station/object KD5UMO-1. If no packets are shown the sender has not sent any weather packets the latest 10 day(s).
| Time | Temp. | Humidity | Pressure | Rain* | Wind** | Luminosity | Snow |
|---|---|---|---|---|---|---|---|
| 1777257421 | 26.67° C | 75% | 1006.4 hPa | 0 mm | - | 0 W/m² | - |
| 1777257117 | 26.67° C | 75% | 1006.3 hPa | 0 mm | - | 0 W/m² | - |
| 1777256815 | 26.67° C | 75% | 1006.4 hPa | 0 mm | - | 0 W/m² | - |
| 1777256511 | 26.67° C | 74% | 1006.4 hPa | 0 mm | - | 0 W/m² | - |
| 1777256211 | 26.67° C | 75% | 1006.3 hPa | 0 mm | - | 0 W/m² | - |
| 1777255909 | 27.22° C | 74% | 1006.3 hPa | 0 mm | - | 0 W/m² | - |
| 1777255605 | 27.22° C | 73% | 1006.1 hPa | 0 mm | - | 0 W/m² | - |
| 1777255301 | 27.22° C | 74% | 1006.1 hPa | 0 mm | - | 0 W/m² | - |
| 1777254996 | 27.22° C | 74% | 1006 hPa | 0 mm | - | 0 W/m² | - |
| 1777254694 | 27.22° C | 74% | 1006.1 hPa | 0 mm | - | 0 W/m² | - |
| 1777254390 | 27.22° C | 73% | 1005.7 hPa | 0 mm | - | 0 W/m² | - |
| 1777254086 | 27.22° C | 73% | 1005.7 hPa | 0 mm | - | 0 W/m² | - |
| 1777253783 | 27.22° C | 73% | 1005.5 hPa | 0 mm | - | 0 W/m² | - |
| 1777253480 | 27.22° C | 73% | 1005.5 hPa | 0 mm | - | 0 W/m² | - |
| 1777253178 | 27.78° C | 72% | 1005.4 hPa | 0 mm | - | 0 W/m² | - |
| 1777252876 | 27.78° C | 72% | 1005.3 hPa | 0 mm | - | 0 W/m² | - |
| 1777252572 | 27.78° C | 72% | 1005.4 hPa | 0 mm | - | 1 W/m² | - |
| 1777252269 | 27.78° C | 71% | 1005.2 hPa | 0 mm | - | 2 W/m² | - |
| 1777251967 | 27.78° C | 71% | 1005 hPa | 0 mm | - | 3 W/m² | - |
| 1777251664 | 27.78° C | 70% | 1004.8 hPa | 0 mm | - | 6 W/m² | - |
| 1777251361 | 28.33° C | 70% | 1004.8 hPa | 0 mm | - | 10 W/m² | - |
| 1777251056 | 28.33° C | 70% | 1004.9 hPa | 0 mm | - | 15 W/m² | - |
| 1777250753 | 28.33° C | 70% | 1005 hPa | 0 mm | - | 20 W/m² | - |
| 1777250449 | 28.33° C | 70% | 1004.8 hPa | 0 mm | - | 26 W/m² | - |
| 1777250144 | 28.33° C | 70% | 1005 hPa | 0 mm | - | 31 W/m² | - |
* Rain latest hour (hover to see other rain measurements)
** Current wind speed in m/s (hover to see current wind gust speed)